SWM388 EHRD-ESSB

Flight info

Callsign SWM388
Flight time N/A
Altitude 37000
Route ANDIK2A ANDIK N873 LOBBI DCT OXJAG DCT LABAN N873 PELIT Y42 TINKA TINKA7Y
Aircraft A320/M-SDE3FGHIRWY/LB1

Departure

Time N/A
Airport Rotterdam The Hague Airport (EHRD)

Arrival

Time 2026-05-05 16:41
Airport Stockholm-Bromma Airport (ESSB)
Time Latitude Longitude Altitude Speed Heading
2026-05-05 15:43 55.77766 8.60556 36981 ft 479 kts 42°
2026-05-05 15:44 55.82492 8.68902 36972 ft 479 kts 42°
2026-05-05 15:44 55.87220 8.77282 36971 ft 480 kts 42°
2026-05-05 15:45 55.91954 8.85696 36970 ft 480 kts 42°
2026-05-05 15:45 55.96673 8.94127 36971 ft 480 kts 42°
2026-05-05 15:46 56.01389 9.02589 36970 ft 481 kts 42°
2026-05-05 15:46 56.06115 9.11090 36965 ft 481 kts 42°
2026-05-05 15:47 56.10798 9.19537 36964 ft 481 kts 42°
2026-05-05 15:47 56.15501 9.28083 36960 ft 482 kts 43°
2026-05-05 15:48 56.20202 9.36667 36962 ft 482 kts 43°
2026-05-05 15:48 56.24904 9.45282 36967 ft 483 kts 43°
2026-05-05 15:49 56.29614 9.53908 36970 ft 483 kts 43°
2026-05-05 15:49 56.34319 9.62567 36968 ft 483 kts 43°
2026-05-05 15:50 56.39014 9.71255 36974 ft 484 kts 43°
2026-05-05 15:50 56.43702 9.79955 36969 ft 484 kts 43°
2026-05-05 15:51 56.48393 9.88691 36969 ft 484 kts 43°
2026-05-05 15:51 56.53083 9.97453 36968 ft 484 kts 43°
2026-05-05 15:52 56.57767 10.06239 36966 ft 485 kts 43°
2026-05-05 15:52 56.62448 10.15047 36949 ft 485 kts 43°
2026-05-05 15:53 56.67125 10.23880 36966 ft 485 kts 43°
2026-05-05 15:53 56.71802 10.32751 36972 ft 486 kts 43°
2026-05-05 15:54 56.76475 10.41665 36967 ft 486 kts 43°
2026-05-05 15:54 56.81139 10.50588 36983 ft 487 kts 43°
2026-05-05 15:55 56.85809 10.59551 36979 ft 487 kts 43°
2026-05-05 15:55 56.90480 10.68550 36981 ft 488 kts 43°
2026-05-05 15:56 56.95111 10.77515 36984 ft 488 kts 43°
2026-05-05 15:56 56.99781 10.86583 36990 ft 489 kts 43°
2026-05-05 15:57 57.04442 10.95669 36991 ft 490 kts 43°
2026-05-05 15:57 57.09107 11.04813 36987 ft 490 kts 43°
2026-05-05 15:58 57.13774 11.13984 36986 ft 491 kts 43°
2026-05-05 15:58 57.18429 11.23164 36987 ft 491 kts 43°
2026-05-05 15:59 57.23092 11.32394 36987 ft 492 kts 44°
2026-05-05 15:59 57.27745 11.41670 36988 ft 492 kts 44°
2026-05-05 16:00 57.31909 11.51743 36988 ft 497 kts 59°
2026-05-05 16:00 57.34611 11.63563 36982 ft 499 kts 68°
2026-05-05 16:01 57.37044 11.75608 36971 ft 499 kts 68°
2026-05-05 16:01 57.39480 11.87651 36964 ft 500 kts 68°
2026-05-05 16:02 57.41897 11.99666 36960 ft 500 kts 69°
2026-05-05 16:02 57.44294 12.11753 36954 ft 500 kts 69°
2026-05-05 16:03 57.47205 12.23406 36953 ft 496 kts 54°
2026-05-05 16:03 57.51682 12.32960 36953 ft 488 kts 36°
2026-05-05 16:04 57.57033 12.40701 36939 ft 487 kts 33°
2026-05-05 16:04 57.62385 12.48462 36949 ft 488 kts 33°
2026-05-05 16:05 57.67729 12.56266 36957 ft 489 kts 33°
2026-05-05 16:05 57.73089 12.64117 36957 ft 489 kts 33°
2026-05-05 16:06 57.78440 12.71978 36961 ft 490 kts 33°
2026-05-05 16:06 57.83759 12.79827 36959 ft 490 kts 34°
2026-05-05 16:07 57.89121 12.87753 36949 ft 490 kts 33°
2026-05-05 16:07 57.94484 12.95703 36954 ft 491 kts 34°
2026-05-05 16:08 57.99836 13.03686 36949 ft 491 kts 34°
2026-05-05 16:08 58.05187 13.11701 36947 ft 491 kts 34°
2026-05-05 16:09 58.10543 13.19753 36952 ft 491 kts 34°
2026-05-05 16:09 58.15869 13.27840 36949 ft 493 kts 37°
2026-05-05 16:09 58.18222 13.32637 36944 ft 499 kts 51°
2026-05-05 16:10 58.20233 13.38005 36941 ft 500 kts 52°
2026-05-05 16:10 58.24217 13.48829 36942 ft 500 kts 52°
2026-05-05 16:11 58.28164 13.59717 36933 ft 501 kts 53°
2026-05-05 16:12 58.36006 13.81531 36926 ft 501 kts 53°
2026-05-05 16:13 58.45848 14.09040 36920 ft 502 kts 53°
2026-05-05 16:13 58.49762 14.20102 36916 ft 502 kts 53°
2026-05-05 16:14 58.57540 14.42297 35252 ft 510 kts 53°
2026-05-05 16:15 58.61556 14.53766 32563 ft 522 kts 52°
2026-05-05 16:15 58.64925 14.63464 30730 ft 518 kts 52°
2026-05-05 16:16 58.69500 14.76742 29124 ft 508 kts 52°
2026-05-05 16:16 58.72715 14.86114 28083 ft 501 kts 52°
2026-05-05 16:17 58.76521 14.97232 26860 ft 493 kts 52°
2026-05-05 16:17 58.78426 15.02810 26247 ft 490 kts 52°
2026-05-05 16:18 58.82109 15.13635 25368 ft 472 kts 53°
2026-05-05 16:18 58.83867 15.18843 24783 ft 458 kts 52°
2026-05-05 16:18 58.87305 15.28999 23348 ft 447 kts 52°
2026-05-05 16:19 58.89003 15.34018 22753 ft 445 kts 52°
2026-05-05 16:19 58.90690 15.39030 22291 ft 442 kts 53°
2026-05-05 16:19 58.94012 15.48933 21212 ft 434 kts 53°
2026-05-05 16:20 58.97264 15.58670 20103 ft 428 kts 53°
2026-05-05 16:20 59.00458 15.68323 19252 ft 422 kts 53°
2026-05-05 16:21 59.03640 15.77938 18121 ft 424 kts 53°
2026-05-05 16:22 59.08371 15.92291 16390 ft 419 kts 53°
2026-05-05 16:22 59.11503 16.01862 15360 ft 411 kts 53°
2026-05-05 16:23 59.14518 16.11100 14429 ft 402 kts 53°
2026-05-05 16:23 59.16007 16.15688 13951 ft 398 kts 53°
2026-05-05 16:23 59.18891 16.24631 12424 ft 380 kts 55°
2026-05-05 16:24 59.19994 16.29242 11667 ft 373 kts 71°
2026-05-05 16:24 59.20493 16.34078 11365 ft 356 kts 85°
2026-05-05 16:24 59.20588 16.43638 10579 ft 347 kts 89°
2026-05-05 16:25 59.20613 16.48233 10246 ft 331 kts 89°
2026-05-05 16:25 59.20648 16.56935 9679 ft 310 kts 89°
2026-05-05 16:25 59.20660 16.61111 9535 ft 308 kts 89°
2026-05-05 16:26 59.20683 16.69455 8930 ft 308 kts 89°
2026-05-05 16:26 59.20702 16.77689 8863 ft 303 kts 89°
2026-05-05 16:27 59.20708 16.81815 8868 ft 304 kts 90°
2026-05-05 16:27 59.20713 16.85948 8856 ft 304 kts 90°
2026-05-05 16:27 59.20716 16.90085 8862 ft 304 kts 90°
2026-05-05 16:27 59.20716 16.94201 8862 ft 304 kts 90°
2026-05-05 16:28 59.20717 16.98345 8860 ft 305 kts 90°
2026-05-05 16:28 59.20709 17.02476 8852 ft 305 kts 91°
2026-05-05 16:28 59.20635 17.06571 8857 ft 305 kts 93°
2026-05-05 16:28 59.20518 17.10704 8854 ft 305 kts 94°
2026-05-05 16:29 59.20386 17.14844 8855 ft 305 kts 94°
2026-05-05 16:29 59.20253 17.18968 8858 ft 306 kts 94°
2026-05-05 16:29 59.20124 17.23119 8857 ft 306 kts 94°
2026-05-05 16:29 59.19995 17.27264 8858 ft 306 kts 94°
2026-05-05 16:30 59.19868 17.31422 8854 ft 306 kts 94°
2026-05-05 16:30 59.19740 17.35573 8857 ft 307 kts 94°
2026-05-05 16:30 59.19613 17.39737 8859 ft 307 kts 94°
2026-05-05 16:30 59.19485 17.43884 8663 ft 306 kts 94°
2026-05-05 16:31 59.19359 17.48049 8247 ft 308 kts 94°
2026-05-05 16:31 59.19235 17.52206 7911 ft 306 kts 94°
2026-05-05 16:31 59.19113 17.56336 7582 ft 304 kts 93°
2026-05-05 16:31 59.18989 17.60452 7271 ft 302 kts 93°
2026-05-05 16:32 59.18867 17.64517 6728 ft 299 kts 93°
2026-05-05 16:32 59.18742 17.68540 6175 ft 296 kts 93°
2026-05-05 16:32 59.18618 17.72539 5646 ft 296 kts 93°
2026-05-05 16:32 59.18493 17.76504 5427 ft 290 kts 93°
2026-05-05 16:33 59.18368 17.80414 5300 ft 288 kts 93°
2026-05-05 16:33 59.18244 17.84256 5178 ft 287 kts 93°
2026-05-05 16:33 59.18120 17.88145 5047 ft 287 kts 93°
2026-05-05 16:33 59.17996 17.92007 4917 ft 282 kts 93°
2026-05-05 16:34 59.17874 17.95846 4666 ft 279 kts 93°
2026-05-05 16:34 59.17754 17.99541 4447 ft 275 kts 93°
2026-05-05 16:34 59.17631 18.03258 4220 ft 271 kts 94°
2026-05-05 16:34 59.17510 18.06886 4034 ft 266 kts 94°
2026-05-05 16:35 59.17393 18.10445 3883 ft 259 kts 93°
2026-05-05 16:35 59.17506 18.13858 3776 ft 248 kts 74°
2026-05-05 16:35 59.18143 18.16879 3671 ft 235 kts 54°
2026-05-05 16:35 59.19160 18.19250 3562 ft 223 kts 36°
2026-05-05 16:36 59.20403 18.21032 3448 ft 221 kts 29°
2026-05-05 16:36 59.21757 18.22283 3351 ft 213 kts
2026-05-05 16:36 59.23197 18.22588 3251 ft 205 kts 350°
2026-05-05 16:36 59.24554 18.21995 3111 ft 198 kts 329°
2026-05-05 16:37 59.25694 18.20549 2955 ft 194 kts 316°
2026-05-05 16:37 59.26586 18.18635 2822 ft 187 kts 304°
2026-05-05 16:37 59.27343 18.16637 2710 ft 177 kts 303°
2026-05-05 16:37 59.28031 18.14757 2643 ft 162 kts 302°
2026-05-05 16:38 59.28655 18.13037 2579 ft 147 kts 302°
2026-05-05 16:38 59.29219 18.11476 2449 ft 135 kts 302°
2026-05-05 16:38 59.29756 18.09988 2266 ft 132 kts 301°
2026-05-05 16:38 59.30276 18.08544 2067 ft 129 kts 301°
2026-05-05 16:39 59.30788 18.07120 1882 ft 128 kts 301°
2026-05-05 16:39 59.31298 18.05703 1677 ft 127 kts 301°
2026-05-05 16:39 59.31806 18.04289 1480 ft 128 kts 302°
2026-05-05 16:39 59.32324 18.02851 1265 ft 129 kts 303°
2026-05-05 16:40 59.32839 18.01416 1044 ft 129 kts 302°
2026-05-05 16:40 59.33353 17.99983 791 ft 128 kts 303°
2026-05-05 16:40 59.33865 17.98557 555 ft 128 kts 304°
2026-05-05 16:40 59.34378 17.97127 336 ft 128 kts 304°
2026-05-05 16:41 59.34893 17.95688 136 ft 130 kts 303°
2026-05-05 16:41 59.35385 17.94293 49 ft 107 kts 307°
2026-05-05 16:41 59.35644 17.93589 54 ft 21 kts 304°
2026-05-05 16:41 59.35743 17.93315 51 ft 27 kts 307°
2026-05-05 16:42 59.35853 17.93018 53 ft 25 kts 303°
2026-05-05 16:42 59.35945 17.92880 51 ft 13 kts 10°
2026-05-05 16:42 59.35976 17.92975 52 ft 1 kts 75°
2026-05-05 16:43 59.35980 17.93011 54 ft 6 kts 76°
2026-05-05 16:43 59.35991 17.93110 52 ft 9 kts 84°
2026-05-05 16:43 59.35963 17.93237 49 ft 12 kts 129°
2026-05-05 16:43 59.35903 17.93393 51 ft 17 kts 126°
2026-05-05 16:44 59.35867 17.93493 51 ft 10 kts 124°
2026-05-05 16:44 59.35822 17.93627 48 ft 14 kts 123°
2026-05-05 16:44 59.35767 17.93782 46 ft 12 kts 125°
2026-05-05 16:44 59.35766 17.93969 42 ft 19 kts 82°
2026-05-05 16:45 59.35841 17.94155 29 ft 16 kts 55°
2026-05-05 16:45 59.35853 17.94317 31 ft 10 kts 108°
2026-05-05 16:45 59.35831 17.94387 30 ft 8 kts 124°
2026-05-05 16:45 59.35802 17.94467 29 ft 3 kts 126°
2026-05-05 16:46 59.35780 17.94501 28 ft 5 kts 172°
2026-05-05 16:46 59.35757 17.94466 28 ft 0 kts 237°